Regional Weather Roundup
Issued by NWS

Home | Current Version | Previous Version | Graphics & Text | Print | Product List | Glossary On
Versions: 1 2 3 4 5 6 7 8 9 10 11 12 13 14 15 16 17 18 19 20 21 22 23 24 25 26 27 28 29 30 31 32 33 34 35 36 37 38 39 40 41 42 43 44 45 46 47 48 49 50
000
ASUS43 KFSD 200810
RWRSD

WEATHER ROUNDUP FOR SOUTH DAKOTA
NATIONAL WEATHER SERVICE SIOUX FALLS SD
300 AM CDT MON OCT 20 2014

NOTE: "FAIR" INDICATES FEW OR NO CLOUDS BELOW 12,000 FEET WITH NO
SIGNIFICANT WEATHER AND/OR OBSTRUCTIONS TO VISIBILITY.


SDZ001>005-009-010-012>017-200900-
NORTHWEST AND NORTH CENTRAL SOUTH DAKOTA

CITY           SKY/WX    TMP DP  RH WIND       PRES   REMARKS
BUFFALO          N/A     46  34  62 S9        29.99S
FAITH            N/A     43  36  76 S10       30.06S
MOBRIDGE       CLEAR     38  36  92 CALM      30.03S
$$

SDZ012>016-024>037-041>051-057-063-072>074-200900-
SOUTHWEST AND SOUTH CENTRAL SOUTH DAKOTA

CITY           SKY/WX    TMP DP  RH WIND       PRES   REMARKS
RAPID CTY ARPT CLEAR     40  35  83 W3        30.08F
PIERRE         CLEAR     44  35  70 CALM      30.05R
CUSTER         CLEAR     37  33  85 NW6       30.16F
ELLSWORTH AFB  CLEAR     46  38  73 SW5       30.08S
PHILIP         CLEAR     37  33  85 W6        30.08R
PINE RIDGE     CLEAR     34  31  88 E3        30.11R
SPEARFISH      FAIR      41  36  81 SW5       30.07F HAZE
WINNER         FAIR      49  36  61 W6        30.07R
$$

SDZ004>011-016>023-039-040-200900-
NORTHEAST SOUTH DAKOTA

CITY           SKY/WX    TMP DP  RH WIND       PRES   REMARKS
ABERDEEN       CLEAR     42  35  76 NW5       30.02R
WATERTOWN      CLEAR     37  34  89 CALM      30.01R
SISSETON         N/A     46  37  71 NW8       29.98R
$$

SDZ017-020-022-023-036>040-048>070-200900-
SOUTHEAST SOUTH DAKOTA

CITY           SKY/WX    TMP DP  RH WIND       PRES   REMARKS
SIOUX FALLS    CLEAR     42  37  82 CALM      30.01R
HURON          CLEAR     37  34  89 W7        30.04R
CHAMBERLAIN    CLEAR     42  36  77 NW3       30.06R
MITCHELL       CLEAR     46  37  71 NW5       30.04R
YANKTON        CLEAR     45  37  76 NW12      30.02R
$$

ABBREVIATIONS USED IN REMARKS
   TC - TEMPERATURE IN CELSIUS
  WCI - WIND CHILL INDEX
   HX - HEAT INDEX
  VSB - VISIBILITY




USA.gov is the U.S. government's official web portal to all federal, state and local government web resources and services.